Theta_e
314 313 311 311 311 311 311 311 311 311 311 309 306 301 298 298 298 298 298 298 297 296 296 296 296 296 296 296 296 296 296 296 297 296 297 297 299 300 300 300 301 302 301 300 300 300 298 298 297 296 295 295 295 295 295 295 295 295 295 295 295 296 295 295 296 296 296 296 296 296 296 297 297 297 298 298 298 298 298 299 299 299 300 300 299
312 312 311 311 312 312 311 311 311 310 308 305 301 300 299 299 299 298 298 297 297 296 296 296 296 296 296 296 296 296 295 295 296 297 298 298 300 302 302 300 302 303 301 300 300 300 298 297 297 296 295 295 295 294 294 294 295 295 295 295 296 296 295 295 295 296 296 296 296 296 296 296 296 297 297 297 297 298 298 298 299 299 299 299 300
312 312 311 311 311 311 311 311 309 308 306 302 300 299 298 299 299 298 297 297 297 296 296 296 295 295 295 295 295 295 295 295 295 297 297 297 300 303 302 299 301 302 301 300 300 299 298 297 297 295 295 295 294 294 294 294 294 295 295 296 296 296 295 295 295 295 296 296 296 296 296 296 296 296 296 296 297 297 297 298 298 298 299 299 299
312 312 311 311 311 310 310 309 308 307 304 301 300 299 298 298 298 297 296 297 297 296 295 295 295 295 295 295 295 295 295 295 295 296 297 297 299 302 302 300 301 302 301 300 299 298 298 297 296 295 295 295 294 294 293 294 294 295 295 296 295 295 295 295 295 295 295 296 296 296 296 296 296 296 296 297 297 297 297 297 297 297 298 299 299
311 311 311 310 309 308 307 306 306 304 302 300 299 298 297 297 297 296 297 296 296 295 295 295 295 295 295 295 295 295 294 294 294 295 297 297 298 301 302 302 301 300 300 300 299 298 298 297 296 296 295 295 294 294 293 293 294 294 295 295 295 294 294 294 295 295 295 295 295 295 295 296 296 296 296 297 297 296 296 296 296 296 297 298 299
311 311 310 308 307 306 305 304 303 301 300 299 298 297 296 296 296 296 297 297 296 295 294 294 294 294 295 294 294 294 294 294 294 295 297 298 298 300 302 301 299 300 300 299 299 298 297 297 297 296 295 295 295 294 293 293 293 294 295 295 294 294 294 294 294 295 295 295 295 295 295 295 296 296 296 296 296 296 296 296 296 295 296 297 298
311 310 309 308 306 304 302 302 301 300 299 298 297 296 296 296 295 295 296 296 295 294 294 294 294 294 294 294 294 294 294 294 294 295 297 298 299 299 300 300 299 299 300 299 299 298 297 297 297 296 296 295 295 295 294 293 293 293 294 294 295 294 294 294 294 294 294 295 295 295 295 295 295 295 296 296 295 296 296 295 295 295 295 295 297
310 309 308 307 304 302 301 300 299 299 298 297 296 296 296 296 295 295 295 295 294 294 294 294 294 294 294 294 294 294 294 294 294 295 296 297 299 300 300 300 299 299 299 299 299 298 297 296 296 296 296 295 295 295 294 293 293 293 293 294 294 294 294 294 294 294 294 294 294 295 295 295 295 295 295 295 295 295 295 295 295 295 295 295 295
309 308 307 306 302 300 299 298 298 298 297 296 296 296 296 296 296 296 296 295 295 294 294 294 294 294 294 294 294 294 294 294 294 295 296 297 298 300 300 300 299 299 299 299 299 298 297 296 296 296 296 295 295 295 295 293 293 294 293 293 294 294 294 294 294 294 294 294 294 295 295 295 295 295 295 295 295 295 295 295 295 295 295 295 295
307 306 305 303 299 298 297 297 297 297 296 296 296 296 296 296 296 297 298 298 295 293 293 293 293 293 293 293 293 293 293 293 294 295 296 297 298 299 300 300 299 299 298 299 299 298 297 297 296 296 296 295 295 295 295 293 293 293 293 293 293 294 294 294 294 294 294 294 294 294 295 295 295 295 295 295 295 295 295 295 295 295 295 295 296
306 304 303 300 298 297 296 296 296 296 296 296 295 295 295 295 296 297 299 298 295 293 293 293 293 293 293 293 293 293 293 293 294 294 296 297 297 298 299 299 299 298 298 298 298 298 297 297 296 296 296 295 295 295 294 293 293 293 293 293 294 294 294 294 294 294 294 294 294 294 295 295 295 295 295 295 295 295 295 295 295 295 295 295 295
305 303 301 299 297 296 296 295 296 296 296 295 295 295 295 295 295 296 297 296 294 293 293 293 293 292 293 293 293 293 292 293 293 294 294 296 297 299 299 299 299 299 297 297 298 298 297 297 296 296 296 296 295 295 294 293 293 293 294 294 294 294 294 294 294 294 294 294 294 294 295 295 295 295 295 295 295 295 294 295 295 295 295 295 295
304 302 300 297 297 296 295 295 295 295 295 295 295 295 295 295 295 295 296 296 295 294 293 292 292 292 292 292 292 292 292 292 292 293 293 294 295 297 298 299 299 299 298 297 298 298 297 297 296 296 296 296 295 294 294 294 293 294 294 294 294 294 294 294 294 294 294 294 294 294 294 295 295 294 295 294 294 295 294 294 295 294 295 295 295
302 300 298 297 296 296 295 295 295 294 294 295 295 295 294 294 294 294 295 296 296 296 294 292 292 292 292 292 292 292 292 292 292 292 292 293 293 294 295 297 298 299 298 297 297 298 297 297 296 296 296 296 295 294 294 294 294 294 294 294 294 294 294 294 294 294 294 294 294 294 294 294 294 294 294 294 294 294 294 294 294 294 295 295 295
301 299 298 297 297 297 296 296 295 295 294 294 294 294 294 294 294 294 294 295 296 296 295 293 292 292 292 292 292 292 292 292 292 292 292 292 292 292 293 294 297 298 298 297 297 297 297 297 297 296 296 296 295 294 294 294 294 294 294 294 294 294 294 294 294 294 294 294 294 294 294 294 294 294 294 295 294 294 294 294 295 295 295 295 294
300 300 299 299 299 298 298 297 296 295 294 294 294 294 294 294 293 293 293 293 293 294 294 293 293 292 292 292 292 292 292 292 292 292 292 291 292 292 292 293 294 296 297 297 297 297 297 297 296 296 296 295 294 294 294 294 294 294 294 294 294 294 294 294 294 294 294 294 294 294 294 294 294 294 295 295 295 295 295 294 295 295 294 294 294
301 301 300 300 300 300 299 298 297 295 295 294 294 294 294 294 294 293 293 293 293 293 293 293 292 292 292 292 292 292 292 292 292 292 291 291 291 291 292 292 292 294 296 297 297 296 296 296 296 295 295 294 294 294 294 294 294 294 294 294 294 294 294 293 294 293 293 293 293 294 294 295 295 295 295 295 295 295 295 294 294 294 294 294 294
302 302 301 301 301 301 300 298 297 295 295 294 294 294 294 294 294 293 293 293 293 292 292 292 292 292 292 292 292 292 292 292 292 292 291 291 291 291 291 291 291 292 294 295 296 295 295 295 295 294 294 294 294 294 294 294 294 294 294 294 294 294 294 293 293 293 293 293 293 294 295 295 295 295 295 295 295 295 295 294 294 294 294 294 294
302 302 302 302 301 300 299 298 296 295 295 294 294 294 294 294 294 295 295 295 293 293 293 294 294 294 294 294 293 293 292 292 292 292 291 291 291 291 291 291 291 291 291 293 294 294 294 294 294 294 294 294 294 294 294 294 294 294 294 294 294 294 294 294 293 293 292 293 293 294 295 295 295 295 295 295 295 294 294 294 293 293 293 293 293
302 302 301 301 301 300 299 298 296 295 295 295 295 294 294 295 296 296 297 297 295 295 296 297 297 297 297 296 296 295 293 292 292 292 291 291 291 291 291 291 291 291 291 292 293 294 294 294 294 294 294 294 294 294 294 294 294 294 294 294 293 293 294 294 293 292 292 293 294 294 294 294 295 295 295 295 294 294 293 293 293 293 293 293 293
302 301 301 301 300 300 299 298 296 295 295 295 295 295 296 297 298 298 299 298 297 298 299 299 299 299 298 298 298 298 296 294 293 292 291 291 291 291 291 291 291 292 292 293 294 294 294 294 295 294 294 295 294 294 294 294 293 293 294 294 293 293 293 293 292 292 293 293 294 294 294 294 294 295 295 295 295 294 293 293 293 293 293 293 293
301 301 301 300 300 300 299 298 296 295 295 295 295 296 298 300 300 300 299 298 298 300 300 299 299 300 299 299 299 299 298 296 294 292 292 291 291 291 291 291 291 292 293 293 294 294 294 295 295 294 295 295 294 294 294 294 293 293 294 294 293 293 293 293 292 292 293 293 293 294 294 294 294 295 295 295 295 294 293 293 292 292 292 293 293
301 301 300 300 300 299 299 298 296 295 295 295 295 297 299 300 299 299 299 298 299 300 300 300 300 300 300 300 299 299 299 297 295 293 292 292 291 292 292 292 292 292 293 293 294 294 294 295 295 295 295 295 295 294 293 293 294 293 294 294 293 293 293 292 291 292 293 293 293 293 294 294 294 295 295 295 295 294 293 293 292 292 292 293 294
301 301 300 300 300 300 299 297 296 295 295 295 296 297 298 298 298 299 300 300 300 300 300 300 300 300 300 300 300 300 299 298 297 294 292 292 292 292 292 292 292 293 293 294 294 294 294 294 294 295 295 295 295 294 293 293 294 293 293 293 292 293 292 291 291 292 293 293 293 293 294 294 294 295 295 295 295 294 293 293 292 292 293 294 296
301 301 300 300 300 300 299 297 296 295 295 295 296 297 297 298 299 301 301 301 300 300 300 300 300 300 300 299 300 300 299 298 297 295 293 292 292 292 292 292 293 293 294 294 294 294 295 294 295 295 295 295 295 294 293 293 293 293 293 292 292 292 292 290 291 293 293 293 293 293 293 294 295 295 296 295 295 294 293 293 293 293 294 296 297
301 301 301 300 300 299 298 296 295 295 295 295 296 297 298 299 301 301 301 301 301 300 300 300 300 299 299 299 299 299 299 298 297 294 292 292 292 292 292 292 293 293 294 294 294 295 295 295 295 295 295 295 295 293 293 293 293 292 292 291 291 292 291 289 291 293 293 293 294 293 293 294 295 296 296 295 295 294 293 293 293 293 294 296 298
301 301 301 300 299 298 297 296 295 295 295 295 296 297 299 300 301 301 301 301 300 300 300 299 299 300 300 299 299 299 299 298 296 293 293 292 292 293 293 293 293 294 294 294 295 295 295 295 295 295 295 295 295 293 292 292 292 291 291 290 290 290 290 289 291 293 293 293 294 294 294 294 295 296 296 295 295 294 293 293 293 292 293 294 296
301 301 301 300 299 298 296 295 295 295 295 296 298 300 301 301 301 301 301 300 300 300 299 299 299 300 300 299 299 298 297 296 294 293 293 293 293 293 294 294 295 295 295 295 295 295 295 295 295 295 295 295 295 293 291 291 292 291 291 290 290 289 288 289 291 293 293 293 294 294 294 294 295 295 296 295 295 294 293 293 293 293 293 293 294
301 301 300 300 298 297 296 295 295 295 296 298 300 302 302 302 302 302 301 300 300 300 299 299 299 299 299 299 298 297 295 293 293 293 293 293 293 294 294 295 295 296 296 296 295 295 295 295 295 295 295 295 295 294 292 291 291 291 291 290 290 289 288 288 290 292 293 293 294 294 294 294 295 295 296 296 295 294 294 293 293 293 293 293 293
301 301 300 299 297 296 295 295 295 295 296 298 300 301 301 301 301 301 302 301 301 301 300 300 299 297 297 296 296 294 293 293 293 293 293 293 293 294 295 295 296 296 296 296 296 295 295 296 295 295 295 295 295 294 292 292 291 291 291 290 290 289 289 288 289 291 293 293 293 294 294 294 295 295 295 295 295 295 294 293 293 293 293 292 293
301 301 300 298 297 296 295 295 295 295 297 298 299 300 301 301 301 302 302 302 302 302 301 300 298 295 294 294 294 293 293 293 293 293 293 293 293 294 295 296 296 296 296 297 296 296 295 296 295 295 295 294 294 294 293 292 291 291 290 291 291 290 289 288 289 291 293 293 293 294 294 294 295 295 295 295 295 295 294 294 293 293 293 292 292
301 300 299 298 296 295 295 295 295 296 298 300 300 301 301 300 301 301 301 299 299 300 299 297 295 294 294 294 294 294 293 293 293 293 293 293 294 294 296 296 296 296 296 296 297 296 296 296 296 295 295 294 294 294 293 292 291 290 290 290 291 291 290 289 288 290 292 293 293 294 294 294 295 295 295 295 295 295 294 294 294 293 293 293 292
300 299 298 297 296 295 295 295 295 297 300 301 301 301 301 300 300 300 299 296 295 295 296 295 294 294 295 295 294 294 294 294 294 294 294 294 294 295 296 296 297 297 297 296 297 297 296 296 296 296 295 294 294 294 293 292 291 290 289 289 290 290 290 290 289 289 291 293 293 294 294 294 295 295 296 295 295 295 294 295 294 294 293 293 293
300 299 298 296 295 295 295 295 296 299 301 301 301 302 302 301 298 297 297 297 297 297 298 297 296 297 298 298 297 296 296 296 296 295 295 295 295 295 296 296 297 297 297 297 297 297 297 296 296 296 296 295 294 293 293 293 292 290 289 289 289 290 290 291 289 288 290 292 293 294 294 294 294 295 296 296 295 295 294 295 295 294 294 293 293
300 299 297 296 296 296 295 296 299 301 301 301 301 301 301 300 299 298 299 300 301 301 300 299 299 299 300 299 298 298 298 298 298 297 296 296 296 296 296 296 297 297 297 297 297 297 297 297 297 296 296 295 294 293 292 292 292 291 290 289 289 289 290 291 290 289 289 291 293 294 294 294 294 295 295 296 295 294 294 295 295 295 294 294 293
300 299 298 297 296 296 297 299 301 302 302 301 302 301 301 301 301 301 301 302 302 301 300 300 300 300 300 300 299 299 299 299 299 298 297 296 297 297 297 297 297 297 297 297 297 297 297 297 297 297 296 295 294 293 292 292 292 292 291 290 289 289 289 290 290 290 288 289 292 293 294 294 294 294 295 295 295 294 294 294 295 295 295 294 294
300 298 297 297 297 298 299 300 301 302 303 302 302 302 302 302 301 301 302 302 301 301 300 300 300 300 300 300 299 299 299 299 299 298 297 296 296 297 297 297 297 297 297 297 297 297 297 297 297 297 296 295 294 293 292 292 292 293 292 291 290 289 289 289 290 290 289 288 290 292 294 294 294 294 295 295 295 295 294 294 294 294 294 295 295
299 298 298 298 299 301 302 302 301 302 302 303 302 302 302 302 301 301 302 302 301 300 300 300 300 300 300 299 299 300 300 299 299 299 297 296 296 296 297 298 298 298 298 298 297 297 297 297 297 297 296 295 294 293 292 292 292 293 293 292 291 290 289 289 289 290 290 289 289 290 293 294 294 294 294 295 295 295 295 295 294 294 294 294 294
298 300 301 301 301 301 302 302 302 302 301 302 302 302 301 301 301 301 301 301 300 300 301 301 300 300 300 299 299 300 300 300 300 299 299 298 297 297 297 297 298 298 298 298 298 297 297 297 297 296 296 295 294 293 292 292 292 293 293 293 292 291 290 289 289 289 290 290 289 289 291 293 294 294 294 294 295 295 295 295 295 295 294 294 294
299 302 303 303 303 302 302 302 303 302 301 302 302 302 301 301 301 301 301 301 300 300 301 301 300 300 300 300 300 300 300 300 300 300 299 299 299 298 297 297 298 298 298 298 298 297 297 298 297 296 295 295 294 293 292 291 292 293 293 293 293 292 291 289 289 289 289 290 290 289 290 292 294 294 294 294 294 295 295 295 295 295 295 295 295
303 303 303 303 303 302 301 302 303 302 302 302 302 301 301 301 301 301 301 301 300 300 300 300 300 300 300 300 300 300 300 300 300 299 299 299 299 298 298 297 297 298 298 298 298 298 297 298 297 297 295 294 294 294 293 292 291 292 293 293 293 293 292 290 289 289 289 289 290 290 289 290 292 293 294 293 293 294 294 295 295 295 295 295 295
303 303 303 303 303 302 301 302 302 302 302 302 302 301 301 301 301 301 301 301 301 301 300 300 300 300 300 300 300 300 300 300 300 299 299 299 299 298 298 297 297 298 298 298 298 298 297 298 298 297 296 295 294 294 294 293 292 292 293 293 293 293 293 291 290 289 289 289 289 290 290 289 290 292 293 293 293 293 293 294 294 295 295 295 295
301 302 303 303 303 302 301 301 301 302 302 302 302 301 301 301 301 301 301 301 301 300 300 300 300 300 300 300 300 300 300 300 300 299 299 299 298 298 298 298 298 298 298 298 298 297 297 298 297 297 297 296 295 295 294 294 293 292 292 293 293 293 293 292 291 289 289 289 289 289 290 290 289 290 292 293 293 293 293 293 293 294 295 295 295
300 301 303 303 302 302 301 301 301 302 302 302 302 302 301 301 300 300 300 300 300 300 300 300 300 300 300 300 300 300 299 299 299 299 299 299 298 298 298 298 299 298 298 298 298 297 298 298 297 297 297 296 295 295 295 295 294 293 292 293 293 293 293 293 291 290 289 289 289 289 289 290 290 289 290 292 293 293 293 293 293 293 294 294 295
302 302 303 303 303 302 301 301 301 302 302 302 302 302 302 301 301 300 300 300 300 301 301 301 300 300 300 300 300 299 299 299 299 299 299 299 298 298 298 299 299 298 298 298 298 298 298 297 297 297 297 297 296 297 296 295 295 294 294 293 293 293 292 292 292 290 289 289 289 289 289 289 290 289 290 291 292 293 293 293 293 293 293 293 294
303 302 302 303 303 303 302 301 301 301 301 302 302 302 302 302 301 301 300 300 300 301 301 300 300 300 300 300 300 300 299 299 299 299 299 299 299 299 299 299 299 298 298 298 298 298 298 298 297 297 297 297 297 297 297 296 295 295 295 294 294 293 293 292 292 291 290 289 289 289 289 289 289 289 289 290 291 292 292 293 293 293 293 293 293
303 302 302 302 303 302 302 302 302 301 301 301 301 302 302 302 301 301 301 301 300 300 300 300 299 299 299 299 299 299 300 300 299 299 299 299 299 299 299 298 298 298 298 298 298 298 298 298 298 298 297 297 297 297 297 297 296 296 296 296 295 295 294 293 292 291 291 290 289 289 289 289 289 289 289 289 290 291 292 292 292 293 293 293 293
303 302 302 302 302 302 303 303 302 302 301 300 300 300 301 301 301 301 301 300 300 300 299 299 299 299 299 299 299 299 299 299 299 299 299 299 299 299 299 299 298 298 298 298 298 298 298 298 298 298 298 297 297 297 297 297 297 297 296 296 296 296 295 294 293 292 291 290 290 289 289 289 289 289 289 289 289 290 291 291 292 292 293 293 293
302 302 301 301 302 302 303 303 303 302 302 301 300 299 299 300 300 300 300 300 300 300 299 299 299 299 299 299 299 299 299 299 299 299 299 299 299 299 299 299 299 299 299 299 299 299 298 298 298 298 298 297 297 297 297 297 297 297 297 297 297 297 297 296 295 293 292 291 290 290 289 289 289 289 289 289 289 289 290 290 291 291 292 293 293
301 301 302 302 302 303 303 303 303 302 302 302 301 300 300 300 300 299 300 300 300 300 300 300 299 299 299 299 299 299 299 299 299 299 299 299 299 299 299 299 299 299 299 299 299 299 299 298 298 298 298 298 297 297 297 297 297 297 297 297 297 297 297 297 296 295 293 292 291 290 290 290 289 289 289 289 289 289 289 290 290 290 290 291 292
301 301 302 303 303 303 303 303 303 302 302 302 302 301 301 300 300 300 300 300 300 300 300 300 299 299 299 299 299 299 299 299 299 299 299 299 299 299 299 299 299 299 299 299 299 299 299 298 298 298 298 298 298 297 298 298 297 297 297 297 297 297 297 297 297 296 295 294 293 291 291 290 290 290 289 289 289 289 289 289 289 289 289 290 291
Wind_Speed
11 10 11 15 17 17 17 18 18 17 16 13 14 17 18 17 16 15 15 14 13 12 11 11 10 9 8 8 8 7 6 6 7 8 10 10 11 11 10 10 11 11 11 11 9 8 11 12 13 15 15 17 20 23 25 26 27 28 28 27 27 25 24 24 25 30 32 31 32 33 34 36 38 39 39 37 35 34 33 31 30 29 30 29 28
14 14 17 20 20 19 18 18 17 17 17 16 17 19 18 17 17 16 16 15 13 12 11 11 10 9 9 8 8 7 7 6 6 6 8 10 11 11 9 10 12 9 9 9 9 9 11 13 15 16 17 20 24 26 27 28 29 29 28 27 26 25 25 25 26 28 31 32 32 32 32 35 36 36 37 39 39 39 38 36 33 31 31 31 30
18 17 19 21 21 21 20 18 18 18 18 18 18 18 18 18 17 16 16 14 12 11 11 11 9 9 8 8 8 8 7 7 6 5 7 9 12 11 9 10 11 8 8 9 9 9 11 14 16 17 20 23 25 27 28 29 30 29 27 25 25 26 27 27 28 29 31 32 31 31 33 36 35 34 36 38 39 40 42 41 38 36 35 34 34
21 20 22 22 22 21 20 19 19 19 19 19 19 18 17 17 16 15 15 14 12 12 11 10 9 8 8 8 7 7 8 8 6 4 5 8 11 11 10 10 10 8 9 10 11 12 13 16 17 18 22 26 26 28 29 29 30 29 25 24 26 28 28 28 28 29 31 33 33 32 34 35 34 35 36 37 37 39 40 41 41 41 39 37 36
22 22 23 23 22 21 21 21 21 21 21 20 20 19 17 17 16 15 15 13 12 12 11 10 8 8 8 8 7 7 8 8 6 5 5 7 10 12 11 9 8 8 9 10 12 14 16 17 17 19 23 26 27 29 30 30 31 30 25 25 28 29 29 30 30 30 31 33 35 35 35 34 34 34 34 34 36 39 40 40 41 42 43 41 38
22 22 23 23 23 23 23 22 22 22 22 21 20 19 18 17 16 16 14 12 12 12 11 9 8 8 8 8 8 8 8 8 7 5 6 7 9 12 11 7 8 9 8 9 12 16 17 15 15 18 21 26 28 30 32 31 31 31 26 25 27 29 31 32 32 32 32 33 35 36 36 33 33 34 33 33 36 38 40 42 42 42 44 45 43
23 23 23 24 24 24 23 23 23 22 21 21 20 19 18 16 16 15 13 12 12 12 10 10 9 9 9 9 8 8 8 7 7 6 6 7 8 10 10 8 10 10 7 9 12 17 17 12 13 19 21 26 29 30 33 32 31 30 28 25 26 28 31 33 34 34 34 35 36 36 36 34 34 35 35 35 35 35 37 40 43 44 46 47 47
25 25 26 26 25 24 23 22 22 22 21 21 20 19 18 17 16 15 14 13 13 11 11 10 10 10 10 10 9 9 8 8 8 7 7 7 8 9 10 10 11 10 6 7 11 17 17 12 15 22 23 26 29 31 33 32 29 30 30 26 25 27 30 33 35 36 36 36 37 38 38 39 39 40 39 38 38 38 37 38 41 43 45 48 50
25 26 26 26 25 24 23 23 22 22 22 21 19 18 17 17 17 16 15 13 13 12 11 11 10 10 10 10 10 10 9 9 9 8 8 8 8 8 10 10 10 9 6 7 12 16 17 15 18 23 25 27 29 31 33 32 28 29 31 29 28 29 31 32 34 36 37 37 39 40 40 41 42 44 44 43 42 41 39 38 40 41 43 48 52
26 26 26 26 25 24 23 23 23 22 21 20 18 17 17 18 17 17 15 13 12 12 11 11 11 11 11 11 11 11 11 11 10 9 9 9 9 9 11 10 9 8 7 7 11 15 16 17 20 24 25 27 29 31 33 31 27 27 30 31 31 31 32 32 33 36 37 38 40 41 42 42 43 44 45 45 44 42 42 42 43 43 41 45 51
27 27 26 26 25 24 24 24 23 22 21 19 19 19 19 18 18 17 15 13 13 14 12 12 12 11 11 11 11 11 12 12 11 10 9 9 10 11 11 10 8 8 8 6 9 14 15 17 22 24 24 26 29 31 32 29 26 26 29 30 32 32 31 32 33 35 37 39 40 41 42 43 43 45 46 47 46 45 44 44 43 42 41 42 47
27 27 26 25 25 25 24 24 23 22 21 20 20 19 19 18 18 17 15 14 14 15 13 12 12 12 12 12 12 12 13 13 12 10 9 9 9 9 9 9 6 9 11 8 9 13 13 16 22 24 23 26 29 29 29 28 26 27 29 30 32 33 31 30 31 34 36 38 40 41 42 43 44 45 47 48 47 47 47 45 43 42 42 41 42
28 27 26 25 25 25 24 23 22 22 21 20 20 19 18 18 17 17 16 14 14 14 14 13 13 13 12 12 12 13 13 13 13 12 10 9 8 6 6 7 4 4 9 9 9 11 12 17 21 22 23 27 29 28 27 27 27 27 30 31 33 34 33 29 29 32 34 35 38 40 41 42 44 47 48 48 48 48 48 46 45 43 41 41 42
28 27 26 26 25 24 23 23 23 22 21 21 21 20 19 18 17 16 15 14 13 13 14 14 13 12 12 12 12 12 13 14 13 13 12 11 9 7 5 4 3 2 5 7 9 10 13 17 19 21 24 28 29 27 27 28 28 29 32 33 34 36 35 32 31 32 32 33 36 40 42 42 44 47 48 47 47 48 47 47 46 43 41 40 41
28 27 27 26 25 24 24 24 23 23 22 22 21 20 19 18 17 16 15 14 13 12 12 13 13 12 12 11 11 11 13 13 13 13 13 12 11 10 9 5 2 1 2 4 6 8 13 17 18 20 25 28 27 27 27 28 29 30 32 33 35 37 36 33 32 33 33 34 36 40 43 44 45 47 48 47 47 47 46 46 43 41 40 40 40
28 28 27 26 25 25 25 25 24 24 23 23 22 21 20 19 18 17 16 15 14 12 11 11 12 12 11 11 11 11 12 13 13 13 13 13 12 11 11 9 5 2 1 3 5 7 12 16 17 20 24 25 25 26 27 29 30 31 32 34 35 37 37 35 33 34 34 34 37 41 43 44 45 47 47 47 47 47 46 44 40 38 38 39 39
29 28 27 27 26 26 26 25 25 24 24 23 23 22 21 20 18 18 17 16 15 13 12 12 12 13 12 11 11 12 13 13 13 14 14 14 13 12 12 12 9 5 2 2 3 6 11 15 17 18 21 23 25 26 27 28 30 31 33 35 35 37 38 37 35 35 35 36 39 41 41 44 46 47 48 47 46 46 46 44 40 36 36 37 39
30 29 29 28 27 27 26 26 26 25 25 25 24 23 21 19 18 17 16 16 15 14 13 13 13 13 13 13 13 13 14 15 15 15 15 15 14 13 12 12 11 9 4 3 6 7 11 13 14 17 21 23 24 26 27 28 30 32 33 34 35 37 38 37 37 37 37 38 40 40 41 45 48 49 50 49 45 43 42 41 38 35 35 36 36
31 30 30 29 27 27 26 26 26 26 25 25 24 22 21 19 18 16 15 15 15 14 13 13 12 12 13 14 15 15 16 16 16 16 16 15 14 14 13 13 13 13 9 5 5 8 12 14 16 18 22 23 25 26 28 28 29 31 32 33 36 38 37 36 38 40 39 39 40 41 44 48 50 51 52 50 46 42 40 38 35 34 34 33 31
32 31 30 29 27 27 26 26 25 25 26 25 23 21 21 18 16 14 13 12 12 12 11 10 10 10 11 13 14 15 16 16 17 17 17 16 16 15 15 15 14 14 12 9 9 12 15 16 18 20 22 23 25 27 27 27 29 29 29 32 35 36 34 35 38 40 39 39 41 44 47 50 52 53 54 52 48 44 41 37 33 31 30 30 28
32 31 30 28 28 27 26 25 25 25 25 25 23 22 20 17 14 13 11 9 9 9 9 9 9 9 10 11 12 13 14 15 16 17 17 16 16 16 16 15 14 14 12 11 12 14 16 17 18 20 22 21 24 28 28 28 29 28 27 31 34 32 32 35 38 38 37 38 42 46 49 52 54 55 56 54 51 47 44 38 32 29 27 26 26
32 31 30 28 28 28 27 25 25 25 25 24 24 23 20 16 14 13 11 9 8 8 7 7 8 6 6 9 10 11 12 14 15 17 17 16 16 17 16 13 12 12 12 13 13 14 16 17 18 20 21 20 23 28 29 28 29 28 27 30 33 32 32 35 38 37 36 39 43 47 50 53 55 57 57 55 53 50 46 42 36 32 27 21 20
32 31 30 29 29 29 27 26 25 25 25 25 24 23 20 18 16 14 12 9 9 9 7 5 5 4 3 4 6 9 11 12 13 15 16 16 15 16 15 12 11 12 14 14 15 15 16 17 17 20 20 19 22 29 29 27 28 29 29 31 33 33 34 37 38 35 36 40 43 46 50 53 54 56 57 55 54 52 49 45 40 36 29 20 12
33 32 32 31 30 29 28 26 26 26 25 24 23 22 21 20 17 15 12 11 10 10 8 6 4 2 0 2 4 8 11 11 12 14 15 15 14 15 13 11 10 12 13 14 15 15 16 17 17 19 20 20 24 29 28 27 28 30 30 32 34 34 36 38 37 35 36 41 44 46 49 52 53 55 56 54 53 52 51 47 43 39 34 25 16
34 33 33 32 31 30 28 26 26 26 24 23 23 22 22 20 17 14 12 10 9 7 6 6 5 3 2 3 5 7 10 11 12 13 13 13 13 13 12 11 10 11 12 12 13 14 15 16 17 18 19 21 25 28 28 27 29 30 31 33 33 34 37 38 36 34 37 41 44 46 48 50 52 54 54 54 53 53 53 50 46 43 37 28 21
35 34 33 32 31 30 28 27 26 25 23 22 21 20 20 18 15 12 9 8 7 6 5 6 6 5 5 5 6 7 9 10 10 10 10 10 11 12 11 11 11 11 11 10 11 12 14 16 18 19 20 22 26 28 27 27 29 30 31 32 32 34 37 37 35 35 37 40 43 45 47 49 51 53 54 55 55 54 54 52 50 48 44 36 29
36 35 34 32 30 29 28 28 27 25 23 22 21 19 18 16 13 11 10 9 10 9 8 8 7 6 6 6 7 8 8 9 8 8 8 8 9 10 10 11 13 14 13 12 12 13 14 16 18 19 20 22 25 26 26 26 29 31 32 32 32 34 36 36 34 33 34 38 41 44 46 48 51 53 54 56 56 54 53 52 51 50 48 45 40
36 35 33 31 30 29 28 27 27 25 23 22 21 19 16 13 12 12 12 12 12 12 12 12 11 10 8 8 9 11 9 7 7 6 6 7 7 8 9 11 14 15 15 16 15 15 15 16 18 19 20 22 25 27 26 26 28 31 32 32 33 34 35 35 33 31 33 35 39 42 45 48 50 52 54 55 55 54 53 52 52 51 50 48 46
35 34 32 31 30 29 28 27 26 25 24 23 21 18 14 12 13 14 13 12 12 13 13 13 12 13 12 10 10 10 8 6 5 5 5 6 6 7 8 11 13 14 15 16 17 18 17 17 19 21 22 22 25 28 28 27 28 30 31 32 33 34 35 35 34 32 33 35 38 42 45 47 49 51 52 54 55 54 53 52 52 51 50 50 49
35 33 31 31 31 30 28 27 26 26 25 24 20 18 15 13 14 13 13 13 13 13 13 12 10 11 12 10 8 7 6 5 4 4 5 6 7 6 7 10 12 13 14 15 16 18 18 18 19 21 22 22 24 27 28 27 28 29 30 31 33 35 36 35 33 32 32 34 36 40 43 46 48 50 51 52 53 53 52 52 51 51 51 50 50
35 33 31 31 31 30 28 28 27 26 25 22 19 18 18 16 15 14 13 14 15 16 16 14 12 11 9 8 8 7 5 4 4 4 4 6 6 6 6 8 9 11 12 13 15 17 18 18 19 21 21 21 23 26 27 26 27 29 29 29 32 34 36 35 33 31 32 33 35 38 41 44 46 48 49 50 51 52 52 51 51 51 51 50 49
35 33 32 32 31 29 29 28 27 26 24 21 18 18 18 18 17 16 14 13 16 17 17 15 13 10 7 6 7 6 4 3 4 4 4 6 6 5 5 6 7 8 10 12 14 17 19 18 19 20 21 21 22 24 25 25 26 28 28 29 30 33 35 35 33 31 30 32 34 37 40 42 44 46 48 48 49 50 51 51 51 51 50 50 49
34 34 34 33 31 30 29 29 28 25 23 21 19 18 17 17 17 16 13 10 11 13 12 10 9 7 4 3 3 3 2 3 4 4 4 5 6 5 4 4 4 6 8 11 13 17 19 18 18 20 21 22 22 23 23 24 25 26 27 28 29 30 32 34 33 31 30 30 32 34 37 40 42 44 46 47 48 48 48 50 50 50 50 51 50
34 34 34 33 31 29 29 29 27 25 23 21 19 18 16 14 13 14 13 11 9 8 8 7 7 5 2 1 1 1 2 3 5 5 4 5 5 5 5 5 4 5 7 9 11 16 19 18 17 19 22 22 23 22 22 23 24 25 26 27 28 28 30 32 33 32 30 29 29 31 34 38 40 42 44 45 47 47 47 48 49 49 50 50 49
34 33 33 31 29 29 29 28 26 24 22 20 19 17 14 12 11 12 12 10 8 6 6 6 5 4 3 2 2 3 4 5 6 6 5 5 5 6 6 6 5 5 6 8 10 13 17 18 18 19 22 23 23 22 21 22 23 24 25 27 28 28 28 30 32 32 29 27 27 28 31 35 37 39 40 42 45 46 46 46 46 47 47 47 47
33 33 32 29 28 28 28 26 25 24 21 18 17 15 12 11 11 10 10 9 8 7 6 5 5 5 6 5 4 4 5 6 7 7 6 6 6 7 7 8 7 6 8 9 10 11 15 18 18 20 22 23 24 23 22 21 21 23 25 26 27 28 29 28 30 31 29 27 26 25 28 32 34 36 38 39 41 44 45 44 45 45 45 45 46
31 31 30 28 26 26 24 23 23 24 22 19 16 14 13 12 11 10 10 11 10 8 7 7 7 8 9 8 6 6 6 8 9 8 7 6 7 8 8 9 10 9 9 10 10 11 15 17 18 20 22 23 24 23 22 20 20 21 24 25 25 27 28 27 28 29 29 27 25 24 25 28 30 33 35 36 37 40 42 44 44 45 46 45 45
28 27 27 26 26 26 24 21 20 21 22 21 18 17 16 15 14 13 13 12 11 10 9 9 9 10 10 9 7 7 8 10 11 10 8 8 10 10 10 10 11 11 10 11 11 13 15 17 18 20 22 22 23 23 22 21 19 20 23 24 24 26 27 26 26 27 28 28 26 23 22 24 26 29 32 33 34 35 37 40 42 43 45 46 46
27 27 26 24 24 26 26 23 20 19 21 21 19 19 19 18 17 16 15 13 12 12 11 11 12 13 13 11 9 9 11 14 13 12 11 12 14 13 12 11 12 12 12 11 12 14 15 16 18 20 21 22 23 23 22 20 19 19 21 23 24 25 26 26 26 26 27 27 27 24 22 21 22 25 28 30 31 31 32 34 37 39 41 43 44
27 27 26 22 21 23 25 24 20 19 20 21 20 19 19 19 18 18 17 16 16 15 14 15 15 15 13 11 10 11 13 15 15 15 15 16 17 17 15 13 12 13 13 13 13 15 16 17 19 21 21 21 22 22 21 20 19 18 19 21 23 25 26 26 26 25 25 26 26 25 22 20 19 21 23 26 28 29 29 30 32 34 37 39 40
29 26 25 23 22 22 24 25 22 20 21 21 21 21 20 19 19 19 18 17 17 18 18 18 17 15 13 11 12 14 16 16 16 17 18 19 18 18 18 16 14 12 13 14 14 15 16 18 20 21 21 20 21 21 20 20 19 18 18 20 22 23 25 26 25 24 24 24 24 24 23 21 18 18 19 22 24 26 27 28 29 30 32 35 36
31 26 24 24 23 23 24 25 23 21 21 22 22 23 22 21 20 19 19 19 17 17 17 18 17 16 15 14 15 16 17 17 18 18 19 19 18 20 20 17 13 13 13 14 15 15 17 19 21 21 20 20 20 19 19 19 19 18 18 19 20 22 24 26 25 24 22 22 22 23 23 21 19 17 16 18 20 22 25 27 27 27 28 31 32
31 27 24 24 24 23 24 26 24 22 22 22 21 21 22 23 22 21 20 20 20 20 20 20 19 18 17 17 17 17 18 18 19 19 19 19 20 21 19 13 10 11 13 15 16 17 18 19 21 22 21 19 18 18 19 19 19 18 18 19 20 21 22 24 25 25 23 22 21 21 21 21 19 17 15 15 17 19 21 24 26 26 26 27 28
29 27 24 23 23 23 24 26 26 23 21 20 20 19 19 21 23 23 22 21 21 21 21 20 19 18 18 19 20 20 21 20 20 20 20 20 20 19 15 11 10 11 13 15 17 17 18 19 20 21 20 17 17 18 19 19 18 18 19 20 20 20 20 22 24 25 24 22 20 20 20 19 19 18 16 15 15 16 18 20 23 25 25 24 24
27 27 25 24 23 23 23 26 28 26 22 19 19 19 18 18 19 21 22 22 21 20 20 19 18 18 19 19 20 20 21 20 20 20 20 20 18 16 12 11 11 12 14 15 16 17 19 20 20 20 18 17 17 20 20 19 18 18 19 20 21 20 20 20 21 22 24 22 20 19 19 19 18 17 16 14 14 15 16 17 19 21 23 23 22
27 27 25 24 23 22 21 23 26 28 26 23 21 20 20 20 19 19 21 22 22 22 22 21 20 20 20 20 20 21 20 20 20 20 19 19 18 16 13 12 12 13 15 17 18 18 19 19 18 18 18 18 19 20 20 20 20 19 19 21 21 21 20 19 19 20 21 22 20 18 17 17 16 16 15 13 12 12 13 13 14 16 19 21 21
27 27 27 24 23 22 21 20 21 24 27 28 27 24 23 23 23 23 23 24 24 24 24 23 23 23 23 22 22 22 22 21 21 21 20 20 19 17 16 15 15 17 18 19 20 20 20 19 17 17 18 19 20 20 20 21 21 20 20 23 24 23 21 19 18 18 19 20 20 18 16 15 15 14 14 13 12 10 10 11 11 11 13 16 18
28 28 28 26 24 23 23 21 19 19 22 26 29 29 27 26 26 26 26 26 26 24 23 23 23 23 23 23 23 23 23 23 23 23 22 22 21 19 18 18 18 19 20 20 20 21 21 21 20 19 18 18 19 21 22 23 24 23 23 24 26 26 24 21 18 17 17 18 19 18 17 15 14 13 13 13 12 10 9 9 9 8 9 10 12
29 27 28 28 27 25 24 22 20 18 18 20 23 26 28 28 27 27 26 26 25 24 23 22 22 22 22 22 23 23 23 23 23 23 23 23 22 21 20 19 19 20 20 20 21 21 21 22 22 21 20 19 20 21 23 25 25 25 24 24 26 27 26 24 21 19 17 17 18 18 17 16 14 13 12 11 11 10 9 10 10 8 6 6 7
30 28 27 27 28 26 23 22 21 20 19 18 19 21 23 25 26 26 26 26 25 25 24 24 23 23 23 23 23 23 22 22 22 21 21 21 21 21 21 21 22 22 22 21 21 21 21 21 21 22 22 22 21 23 25 26 26 25 25 24 25 25 25 25 24 21 19 17 17 18 18 17 15 14 13 11 10 9 9 10 11 10 8 5 4
31 30 26 25 26 27 25 23 22 22 22 21 20 20 21 23 24 25 26 26 26 26 26 25 25 25 25 24 24 24 23 23 23 22 22 21 21 21 21 22 23 23 23 22 21 20 20 21 22 23 23 24 24 25 26 26 25 25 25 25 25 24 24 24 24 22 21 19 19 18 18 17 16 15 14 13 11 9 8 9 10 10 9 7 5
Wind_Direction
175 157 142 135 130 127 131 136 144 153 160 163 158 154 153 152 153 152 149 147 148 149 146 141 136 129 123 117 114 112 113 116 119 118 108 96 86 75 67 66 61 52 46 45 39 17 6 6 6 13 20 20 20 20 17 14 11 9 5 1 2 359 354 349 335 327 332 335 334 335 337 337 336 337 337 335 334 334 332 331 329 326 323 319 312
155 146 140 139 140 145 151 156 160 162 162 159 155 154 154 153 153 152 148 146 149 149 143 136 131 127 123 118 114 111 106 106 110 112 105 95 85 72 58 66 67 49 36 40 33 11 359 359 6 16 22 22 20 18 14 12 8 5 4 1 0 3 2 356 347 335 332 336 338 335 334 336 334 333 332 330 330 331 330 329 329 326 323 321 316
157 156 152 154 157 162 166 168 167 164 160 157 156 156 156 154 155 154 150 150 152 147 137 132 129 125 119 114 111 107 101 100 100 96 93 91 86 72 53 63 68 44 24 29 20 4 357 360 10 19 21 20 17 13 12 9 5 2 2 3 3 5 6 0 352 344 336 335 336 334 335 337 334 332 332 330 328 328 327 327 327 325 323 320 317
168 168 168 170 169 169 170 168 165 163 160 157 156 157 156 156 156 154 151 153 152 141 133 129 125 119 115 109 104 101 98 95 92 81 75 82 87 79 59 56 62 43 21 20 16 10 7 9 15 20 20 17 11 8 9 6 4 5 4 6 10 8 5 0 355 348 341 336 335 333 333 334 332 332 334 332 328 327 325 325 324 323 321 319 316
177 177 177 175 169 166 165 162 161 162 161 158 157 157 156 156 156 154 153 155 149 139 132 128 124 119 113 106 100 97 95 92 92 84 71 75 84 85 72 51 48 47 27 18 17 13 13 15 17 18 18 14 8 4 4 3 4 8 6 8 14 13 7 2 357 352 347 340 337 335 334 333 331 332 334 330 328 327 325 323 322 322 320 318 315
181 178 174 167 164 163 162 161 162 162 162 160 159 158 158 158 157 156 158 154 142 134 131 127 123 117 107 100 97 92 90 90 91 87 79 78 81 88 85 53 42 57 35 16 14 9 14 20 12 10 11 6 2 2 2 1 3 7 6 6 13 13 7 2 358 353 350 346 341 340 338 335 332 333 335 331 328 326 325 324 322 322 322 319 317
180 175 170 166 165 165 164 165 165 164 164 162 160 159 159 160 157 156 157 149 137 134 134 127 119 110 101 96 93 86 86 86 86 89 86 83 82 86 85 60 49 58 33 10 8 3 11 22 7 5 5 357 357 1 2 360 360 3 4 2 5 7 3 359 357 353 350 348 346 345 343 340 336 334 334 333 329 325 324 323 321 321 321 319 316
177 172 170 169 168 167 167 167 167 166 165 164 163 164 162 159 156 154 151 146 143 140 132 122 111 104 97 93 91 86 86 85 85 89 85 84 85 83 80 65 53 56 36 0 356 356 4 14 7 4 1 355 357 0 0 358 357 0 3 1 359 1 359 357 354 351 349 346 345 344 343 342 341 338 337 336 332 328 326 323 318 317 317 314 313
175 173 173 172 169 169 168 168 168 168 168 167 167 166 165 161 156 151 148 148 146 135 122 112 103 98 93 90 90 88 85 83 83 85 83 85 88 84 82 70 51 51 44 358 347 352 359 6 5 1 357 355 358 358 357 358 357 1 5 3 359 358 357 355 352 349 345 342 341 341 339 338 339 338 337 337 334 330 327 323 317 314 313 311 310
174 174 175 172 169 169 168 168 170 170 170 169 167 165 165 163 158 152 152 152 141 125 114 107 99 93 89 87 86 83 78 75 75 79 81 81 84 87 85 73 48 42 44 11 349 350 354 360 2 358 354 355 357 355 354 355 358 4 7 5 2 359 355 353 350 347 342 338 337 337 335 334 335 335 334 334 333 329 326 323 318 316 314 310 309
174 175 175 172 170 170 170 170 171 171 171 169 166 166 165 165 162 157 158 154 137 122 115 108 99 91 87 84 81 77 72 70 69 71 76 76 79 85 81 71 45 24 31 23 349 349 355 357 357 353 351 354 355 353 354 355 359 5 7 5 3 1 356 352 349 346 342 336 334 335 333 332 333 333 332 332 331 327 325 323 318 316 314 309 305
177 176 174 172 170 171 171 171 171 171 170 168 167 168 167 166 164 160 159 154 140 127 116 107 98 91 87 82 80 75 71 71 69 68 71 72 76 83 78 72 48 13 20 22 351 347 353 353 350 348 349 352 354 355 355 357 0 3 3 2 1 1 360 355 351 347 342 337 334 334 333 331 330 331 332 331 329 326 325 323 319 315 310 305 300
178 176 174 171 170 172 172 172 171 169 169 169 169 170 168 166 164 161 158 154 146 133 119 108 100 94 88 80 78 76 71 69 66 62 60 58 61 76 80 84 85 29 29 28 2 345 345 347 345 344 349 353 355 356 356 356 359 1 1 1 360 360 1 358 354 350 345 339 335 334 334 332 329 330 332 331 328 326 325 322 319 314 307 302 298
178 174 172 170 171 173 172 171 169 168 168 169 169 170 168 164 162 160 157 154 150 138 124 113 104 96 90 83 77 74 70 66 61 57 52 46 42 40 49 85 124 92 41 29 16 357 343 342 342 343 350 352 352 356 359 360 1 1 359 358 358 358 359 357 354 350 345 340 335 334 336 334 330 330 333 332 329 326 323 321 318 314 307 302 300
174 172 170 171 172 172 170 170 169 168 168 170 170 168 165 161 157 154 151 149 147 140 130 120 111 101 92 85 77 71 68 64 58 53 47 43 38 27 27 47 94 106 48 15 14 3 344 342 344 344 347 347 350 358 4 3 1 358 356 356 356 356 357 355 353 350 344 338 334 335 337 336 334 333 334 334 331 328 325 322 319 315 310 306 303
171 170 170 170 170 170 170 170 170 169 170 170 168 164 161 158 154 150 147 142 139 134 126 117 110 103 93 85 77 68 65 61 57 52 43 39 37 26 25 36 43 55 45 351 357 7 357 349 342 340 344 351 360 6 6 1 359 357 355 354 354 354 354 353 351 349 344 337 335 337 339 338 338 338 339 338 335 332 330 326 322 318 313 308 304
170 170 169 169 170 172 173 172 171 171 170 168 165 164 162 158 152 148 143 136 131 125 118 109 102 96 89 80 73 65 60 54 50 47 41 34 31 24 23 31 33 27 15 319 326 356 359 348 338 342 355 4 9 9 5 0 358 356 354 352 351 351 351 351 350 347 344 339 338 340 342 342 342 342 343 343 340 338 333 326 324 322 315 309 306
171 170 170 171 173 175 176 175 173 172 171 169 168 166 161 155 150 145 139 133 127 121 115 108 100 94 86 74 65 57 51 47 42 40 36 28 25 22 19 23 26 25 19 305 302 341 5 2 357 3 8 6 4 4 4 1 357 355 353 351 349 349 350 349 348 347 344 341 342 346 347 347 346 345 345 345 344 342 335 327 326 324 316 311 307
173 173 172 174 176 176 176 177 175 174 172 170 168 164 157 152 148 143 138 132 127 122 116 108 99 92 82 69 58 48 41 39 35 34 32 25 19 18 17 17 20 21 22 3 343 13 31 27 18 14 10 6 4 3 1 359 356 354 354 351 349 349 349 349 347 346 345 344 346 349 350 349 348 346 346 347 348 347 341 334 331 327 318 312 306
174 174 175 175 176 176 176 177 176 174 172 169 166 161 155 150 144 140 137 132 127 122 115 105 89 77 67 57 48 40 34 31 28 27 25 20 17 17 15 15 17 20 27 35 36 36 35 28 20 14 10 9 6 2 0 358 354 351 352 351 350 348 348 348 347 346 346 347 349 351 351 350 349 348 348 350 351 350 347 343 337 331 322 312 303
174 175 176 176 175 175 177 178 176 174 172 169 164 156 148 140 135 135 138 140 131 115 99 83 67 55 46 38 30 23 21 21 21 21 20 15 14 15 13 13 20 27 36 44 41 34 30 25 20 15 10 6 4 2 359 356 354 353 353 352 351 349 349 349 348 348 351 352 351 352 353 351 350 350 349 350 352 352 351 350 345 340 331 317 305
175 176 176 174 174 174 176 178 176 174 173 169 162 153 145 142 145 152 160 162 144 120 101 74 56 45 32 25 15 2 3 11 13 14 14 13 11 11 12 18 29 37 45 49 42 34 30 23 17 13 9 4 1 0 357 355 357 358 357 354 352 353 354 352 350 353 357 356 353 353 354 352 350 350 349 351 354 354 354 355 354 350 345 333 314
176 176 174 173 174 175 177 178 176 174 173 170 165 159 154 155 162 165 162 151 129 119 121 101 68 54 25 15 359 338 341 357 7 8 8 10 10 11 16 29 42 46 48 48 41 34 29 21 14 11 9 4 359 358 357 358 360 0 359 355 354 356 357 354 353 357 1 360 356 355 355 353 352 351 351 353 356 356 357 359 359 358 359 357 344
176 175 174 174 175 177 179 179 176 175 174 171 167 161 157 156 156 150 136 122 114 111 116 121 113 108 303 326 322 314 321 339 355 0 3 7 10 14 22 34 47 50 49 45 39 33 27 20 14 10 9 6 360 356 358 1 2 2 1 357 356 359 358 355 358 2 3 2 359 357 356 355 354 354 354 355 358 359 1 3 5 7 10 16 24
176 175 176 177 178 179 180 178 177 176 175 172 168 161 156 155 151 143 131 126 125 119 120 141 163 184 224 265 284 293 308 326 343 353 359 6 12 18 26 35 43 47 46 42 37 32 26 19 14 11 10 7 0 356 358 2 3 3 1 357 358 360 357 357 2 5 4 4 3 360 358 356 357 358 357 358 1 3 3 6 10 15 21 29 40
177 177 179 180 181 181 181 178 177 177 174 171 168 162 157 155 151 147 145 146 150 152 158 173 190 208 220 237 263 279 293 311 328 345 356 6 16 23 31 42 47 45 41 37 35 32 26 20 15 12 10 6 359 355 358 2 4 4 2 359 1 1 358 0 6 8 7 7 6 4 2 359 0 2 0 360 4 6 5 7 11 18 23 29 37
180 181 182 182 183 183 181 177 176 176 172 169 165 157 150 146 144 149 157 165 172 180 184 188 200 217 223 232 249 257 271 296 317 339 354 6 20 29 37 48 51 47 41 38 35 29 23 19 15 12 8 3 357 354 359 4 5 5 3 2 3 2 360 3 9 10 10 10 9 8 7 4 4 5 3 2 5 8 9 9 12 17 21 26 30
183 184 185 184 184 184 181 178 176 174 169 164 160 152 148 151 161 169 175 180 184 189 193 197 205 215 217 225 239 247 262 293 315 334 352 5 18 28 35 43 46 42 35 32 29 24 19 15 13 11 7 0 354 353 360 6 7 6 5 4 5 4 2 4 10 14 13 13 13 13 11 9 8 8 6 4 6 10 13 14 15 18 21 26 28
186 186 185 185 184 183 180 178 176 172 166 162 159 155 158 173 185 187 190 195 198 201 204 208 215 224 229 235 247 257 271 293 308 326 348 1 12 20 29 37 40 34 27 23 19 17 16 14 12 9 5 359 353 353 358 4 6 7 7 6 5 6 5 5 10 14 16 17 16 15 14 11 11 11 9 6 7 12 16 17 18 20 23 26 28
187 186 185 185 183 181 179 178 176 173 171 169 166 163 168 181 191 194 201 208 210 212 216 221 231 238 239 245 257 263 268 281 302 327 343 355 4 11 23 33 33 25 20 18 14 10 11 12 10 7 3 358 353 353 357 1 2 4 7 8 7 6 6 8 11 14 17 19 19 17 16 14 13 13 11 8 9 13 18 20 22 23 25 26 27
187 185 184 184 182 180 179 179 177 179 180 176 172 172 178 186 194 202 211 218 219 222 226 234 245 250 247 246 253 256 260 281 310 325 337 353 4 6 17 33 31 16 10 12 9 5 7 9 7 3 360 356 353 352 355 359 0 1 5 9 10 8 7 9 11 13 16 21 22 20 19 17 16 16 15 12 11 14 19 23 24 26 27 28 28
187 185 184 184 183 181 181 180 180 182 183 178 177 185 192 196 200 205 214 222 224 226 230 236 241 245 245 243 246 253 267 290 305 317 338 357 7 7 12 31 33 17 8 8 3 360 3 6 2 356 354 353 352 352 353 356 0 2 4 9 11 9 8 9 9 11 15 21 23 22 21 20 19 19 19 16 14 15 20 24 25 27 28 29 31
189 186 184 185 184 182 182 183 183 183 182 180 183 193 201 206 210 213 216 220 218 217 221 224 221 219 226 239 241 247 278 305 314 322 338 353 5 13 17 25 28 13 6 5 1 356 358 1 356 350 349 350 350 351 352 354 359 3 7 10 11 9 9 9 9 9 14 22 25 25 23 22 21 21 22 21 18 18 21 25 27 28 30 31 32
191 189 187 187 185 183 183 185 183 180 182 186 192 197 203 209 213 212 209 208 207 207 209 207 200 200 218 276 279 270 302 329 336 334 332 340 355 7 13 20 27 11 356 0 1 353 351 352 349 344 344 346 348 351 351 352 356 3 8 11 12 9 8 10 10 9 12 21 27 28 25 24 23 22 23 24 23 22 23 26 29 30 31 32 33
191 190 189 189 187 184 184 185 181 177 183 195 202 202 202 201 200 202 206 210 212 215 213 204 202 217 249 279 299 301 305 322 334 334 328 332 345 357 1 4 12 6 348 353 0 352 344 343 340 338 339 343 347 350 351 350 354 0 6 11 12 9 8 10 11 11 12 18 26 29 27 26 25 24 25 27 27 25 25 27 30 32 34 35 35
191 191 191 191 189 184 182 183 182 181 185 196 205 207 204 203 205 212 220 220 217 221 223 216 213 228 244 258 277 289 294 304 315 320 322 324 331 340 345 345 350 352 344 344 352 349 339 335 333 333 335 340 345 348 350 351 354 358 4 9 11 9 8 9 11 10 11 16 23 28 29 28 26 26 27 29 30 30 28 28 30 33 35 37 39
194 193 192 191 189 185 182 183 187 187 186 192 204 211 212 216 222 225 224 220 218 226 234 234 232 235 243 255 273 282 281 284 291 301 313 319 318 321 326 329 332 336 336 336 342 341 333 328 327 328 331 337 343 345 348 352 354 356 1 8 10 9 8 9 10 10 10 14 21 27 30 30 28 27 27 29 32 33 32 31 33 34 35 36 39
196 193 191 190 187 186 184 184 189 192 189 190 199 209 213 220 227 227 224 224 228 237 246 245 241 244 252 263 277 279 269 266 273 288 305 316 318 314 311 314 320 323 325 327 332 332 325 320 322 325 328 335 341 343 346 350 353 353 358 4 7 8 7 9 11 10 9 13 18 25 31 32 30 28 28 29 31 33 33 32 33 35 36 37 38
193 191 191 191 190 190 189 186 189 196 194 192 198 206 209 214 222 227 230 233 237 245 251 244 241 249 260 264 267 266 261 262 271 284 295 307 316 315 307 302 306 312 315 317 321 320 314 311 317 323 328 334 340 342 345 348 350 350 352 357 3 5 5 6 9 10 9 11 15 22 30 35 33 30 30 30 31 32 32 31 31 32 34 37 39
192 193 194 195 195 195 191 187 191 199 198 196 202 208 208 211 217 224 230 233 232 236 240 240 246 257 265 263 261 264 266 270 276 283 290 299 309 313 308 296 292 300 306 307 308 309 304 304 313 323 330 335 339 342 345 347 348 347 346 350 356 1 2 4 6 8 8 9 12 16 25 33 35 32 32 32 31 31 30 30 30 29 30 33 36
191 193 197 200 200 198 194 191 195 202 203 202 206 208 208 211 217 224 230 234 234 235 237 241 249 257 259 260 263 266 270 275 278 283 291 297 303 308 306 295 283 286 294 296 298 301 299 300 310 322 332 338 341 343 346 347 346 344 342 344 349 354 357 360 3 5 7 8 9 12 19 28 32 31 32 33 32 32 32 31 29 27 27 30 33
191 192 198 203 203 201 199 198 200 204 207 209 211 212 211 212 216 223 230 233 235 236 239 242 248 252 255 260 264 265 268 274 277 282 290 294 297 303 303 293 275 271 277 284 292 298 298 300 308 318 328 336 341 344 348 349 346 342 339 341 345 347 350 354 358 1 3 6 8 8 12 20 26 27 30 33 33 32 33 33 31 27 27 29 33
196 196 201 206 207 206 205 203 204 207 212 216 219 221 220 218 218 222 229 232 233 236 240 243 247 250 252 255 259 263 267 272 275 281 286 288 292 296 296 285 267 262 269 280 292 296 296 299 306 316 324 331 338 345 351 351 348 342 338 337 342 345 345 347 352 357 359 3 6 6 6 13 20 21 24 31 34 32 31 33 33 31 28 28 32
198 199 205 210 212 211 209 205 205 209 216 222 226 229 228 224 223 224 229 234 238 242 245 249 251 252 253 254 256 261 266 268 272 277 279 282 288 292 286 271 260 261 269 282 291 292 292 296 306 318 328 335 341 347 350 350 348 345 340 336 339 343 343 343 347 352 355 357 1 3 3 7 14 18 20 27 33 32 29 31 34 35 32 29 28
200 203 207 211 213 214 212 208 206 208 212 218 225 230 232 231 229 228 229 234 241 246 250 254 257 257 257 257 258 262 265 268 270 273 275 278 285 287 280 269 264 264 272 283 288 289 292 300 310 321 328 333 339 344 346 348 349 347 343 341 340 341 340 340 343 347 350 351 355 359 0 2 8 13 17 24 32 33 30 30 33 36 35 32 28
205 208 210 211 213 214 216 214 213 213 213 214 219 226 231 234 235 233 232 234 238 242 246 250 255 257 259 261 264 266 268 270 272 274 276 278 281 281 278 276 273 271 276 283 286 289 297 307 317 322 323 324 330 335 338 342 346 346 347 349 348 345 341 339 339 341 344 346 349 353 355 357 2 8 11 17 27 33 31 30 32 34 35 36 33
208 211 213 214 216 219 221 221 221 222 222 221 220 223 227 231 234 235 236 238 241 244 246 249 251 254 258 261 264 268 270 272 275 278 279 279 279 278 277 277 276 274 277 280 283 289 296 301 306 313 316 317 320 323 327 332 336 339 344 349 351 349 345 340 335 335 339 342 343 346 347 349 354 1 5 7 14 23 25 24 27 32 36 39 39
209 213 216 217 221 224 225 225 227 229 229 228 227 226 228 231 234 237 240 243 247 249 251 252 252 254 257 259 261 265 268 271 274 277 278 279 280 279 277 275 273 271 273 277 282 289 292 291 292 299 307 308 310 315 321 324 325 327 331 336 341 344 345 342 336 332 334 337 338 339 340 340 342 349 356 1 6 11 10 6 9 22 35 41 40
210 213 217 221 224 227 227 228 230 233 232 231 231 231 232 234 237 240 243 246 249 252 255 257 258 259 260 261 262 265 267 267 269 273 275 277 279 279 277 275 271 267 269 277 285 289 291 289 289 293 296 296 300 309 316 319 319 320 321 325 331 336 339 340 337 333 330 332 334 334 334 333 331 332 338 348 357 3 1 354 352 360 18 35 36
212 212 217 223 227 228 229 232 235 237 236 234 233 233 233 236 238 241 243 246 249 251 255 258 261 262 264 266 266 267 267 267 268 271 273 274 275 275 274 273 271 269 271 279 286 288 287 287 288 290 291 291 295 305 314 316 316 314 314 318 324 329 333 335 336 333 330 328 328 328 328 328 326 323 323 326 334 344 349 348 347 350 357 12 24
212 212 217 223 225 225 229 234 238 240 242 241 239 238 238 237 239 241 243 246 249 251 252 255 258 261 263 266 268 269 270 271 271 272 273 273 272 272 271 271 271 271 273 277 282 283 283 285 289 292 294 295 299 305 310 311 310 309 310 312 315 321 329 333 333 331 329 328 325 323 322 322 321 320 318 316 316 322 329 331 335 342 350 358 6